Location: Sternwarte ZA, Rosenfeld-Brittheim
(48.2889°N, 8.6789°E)
Time: 21:25:19
(UTC+01:00)

ISS - Pass Details

Date: 03 March 2021
Orbit: 417 x 422 km, 51.6° (Epoch: 02 March)

Event Time Altitude Azimuth Distance (km) Brightness Sun altitude
Exits shadow 06:28:25 - 292° (WNW) 1,696 -1.3 -6.5°
Reaches altitude 10° 06:28:54 10° 293° (WNW) 1,499 -1.5 -6.4°
Maximum altitude 06:32:13 57° 13° (NNE) 501 -3.3 -5.8°
Drops below altitude 10° 06:35:32 10° 93° (E) 1,497 1.0 -5.3°
Sets 06:37:39 0° 98° (E) 2,360 3.0 -4.9°
